TimeEST,TemperatureF,Dew PointF,Humidity,Sea Level PressureIn,VisibilityMPH,Wind Direction,Wind SpeedMPH,Gust SpeedMPH,PrecipitationIn,Events,Conditions,WindDirDegrees,DateUTC
12:54 AM,23.0,19.9,88,30.35,5.0,Calm,Calm,-,N/A,,Clear,0,2013-01-09 05:54:00
1:54 AM,19.9,18.0,92,30.35,5.0,Calm,Calm,-,N/A,,Clear,0,2013-01-09 06:54:00
2:54 AM,19.0,17.1,92,30.35,4.0,Calm,Calm,-,N/A,,Clear,0,2013-01-09 07:54:00
3:54 AM,17.1,15.1,92,30.35,5.0,Calm,Calm,-,N/A,,Clear,0,2013-01-09 08:54:00
4:54 AM,17.1,14.0,88,30.34,4.0,Calm,Calm,-,N/A,,Clear,0,2013-01-09 09:54:00
5:54 AM,17.1,15.1,92,30.36,4.0,Calm,Calm,-,N/A,,Clear,0,2013-01-09 10:54:00
6:54 AM,15.1,10.9,84,30.38,5.0,Calm,Calm,-,N/A,,Clear,0,2013-01-09 11:54:00
7:54 AM,15.1,12.0,88,30.38,4.0,Calm,Calm,-,N/A,,Clear,0,2013-01-09 12:54:00
8:54 AM,17.1,15.1,92,30.35,4.0,Calm,Calm,-,N/A,,Clear,0,2013-01-09 13:54:00
9:54 AM,21.9,21.0,96,30.35,5.0,Calm,Calm,-,N/A,,Clear,0,2013-01-09 14:54:00
10:54 AM,25.0,21.0,85,30.28,6.0,Calm,Calm,-,N/A,,Clear,0,2013-01-09 15:54:00
11:54 AM,28.0,23.0,81,30.22,6.0,SW,4.6,-,N/A,,Haze,220,2013-01-09 16:54:00
12:54 PM,33.1,24.1,70,30.22,9.0,Calm,Calm,-,N/A,,Overcast,0,2013-01-09 17:54:00
1:54 PM,36.0,25.0,64,30.13,10.0,SSE,4.6,-,N/A,,Overcast,160,2013-01-09 18:54:00
2:54 PM,37.9,28.0,68,30.09,10.0,SSW,8.1,-,N/A,,Overcast,200,2013-01-09 19:54:00
3:54 PM,39.0,28.9,67,30.06,10.0,South,6.9,-,N/A,,Overcast,190,2013-01-09 20:54:00
4:54 PM,39.9,30.0,68,30.01,10.0,SSW,10.4,-,N/A,,Mostly Cloudy,200,2013-01-09 21:54:00
5:54 PM,37.9,30.0,73,30.04,10.0,WSW,9.2,-,N/A,,Clear,240,2013-01-09 22:54:00
6:54 PM,37.9,30.0,73,30.06,10.0,SW,9.2,-,N/A,,Clear,220,2013-01-09 23:54:00
7:54 PM,37.9,30.0,73,30.06,10.0,SW,10.4,-,N/A,,Clear,230,2013-01-10 00:54:00
9:54 PM,39.9,25.0,55,30.10,10.0,West,17.3,27.6,N/A,,Mostly Cloudy,280,2013-01-10 02:54:00
10:54 PM,39.9,21.9,49,30.09,10.0,West,19.6,32.2,N/A,,Overcast,270,2013-01-10 03:54:00
11:54 PM,39.9,24.1,53,30.10,10.0,West,23.0,33.4,N/A,,Overcast,280,2013-01-10 04:54:00